Find Starlink 31419

NORAD ID: 59368 Int'l Des: 2024-060 Owner: SPXS Country: US Constellation: starlink operational
LEOCIRCULAR

Live Position

Loading 3D Globe...

About Starlink 31419

Description loading...

Upcoming Passes

Passes for default location (London). Set your location on the main map for personalized predictions.

Altitude History

Loading altitude history...

Two-Line Element Set

1 59368U 24060W 26126.81600673 -.00001296 00000-0 -37561-4 0 9997
2 59368 43.0026 291.4886 0001876 272.8173 87.2464 15.27575550118955
Epoch: May 6, 2026 • Age: 9 hours

Current Status

Altitude 483.2 km
Velocity 7.63 km/s
Sub-Earth Point -3.97°S, 14.64°W
Launch Date Mar 31, 2024
Age 2 years
Type internet

Technical Details

Classification Payload
Mass 730.00 kg
Dry Mass 700.00 kg
Total Mass 730.00 kg
Length 0.30 m
Diameter 4.10 m
Span 29.00 m
Shape Box + pan
Manufacturer SPXS
Bus Type Starlink V2M
Phase Status In Orbit
Owner/State SPXS/US

Most Searched